Wind_Speed
18 17 17 17 18 15 8 7 6 6 4 3 3 2 2 2 1 1 1 2 3 4 4 5 5 6 7 7 8 8 9 10 11 11 11 10 10 10 10 10 10 9 9 9 9 9 9 9 8
17 16 17 18 18 12 9 7 7 6 5 4 4 3 3 2 2 1 1 1 3 4 4 5 6 6 7 6 7 9 9 10 11 11 10 10 10 9 9 9 9 9 9 8 9 9 9 8 8
17 16 18 18 13 10 9 9 8 7 6 5 5 5 4 3 3 2 1 2 2 3 5 6 6 6 5 6 6 8 8 9 9 9 9 9 9 9 9 9 9 9 8 8 8 8 8 7 7
17 20 21 16 10 10 9 9 8 7 7 7 7 6 5 4 3 3 2 3 4 3 4 6 6 6 6 6 6 7 7 8 8 9 9 9 9 8 9 9 8 7 7 7 7 7 7 6 6
17 21 18 12 10 10 9 9 9 8 7 8 8 7 6 6 5 4 4 3 3 3 4 4 6 6 6 6 6 7 8 7 8 8 8 8 8 8 9 8 7 7 6 6 6 6 6 5 5
18 19 15 10 9 9 9 10 9 8 8 8 9 9 8 7 7 5 5 4 4 5 5 5 6 6 5 5 7 7 8 8 8 8 8 8 8 9 8 7 6 6 6 5 5 5 5 4 4
18 15 10 9 9 8 9 8 8 9 9 9 9 9 9 7 7 7 6 4 4 4 5 5 6 5 5 5 6 7 8 7 7 8 8 9 9 8 7 6 6 5 5 4 4 4 4 3 3
15 12 9 8 7 7 8 8 8 10 10 10 9 10 10 9 8 7 7 6 5 5 5 4 5 5 5 5 6 6 7 7 7 8 8 8 8 7 6 5 5 4 4 3 3 3 3 2 2
13 10 8 6 5 6 7 8 9 10 10 10 10 10 10 10 8 8 7 7 6 5 4 4 4 4 5 4 5 6 6 6 7 7 7 7 6 6 5 5 4 3 3 2 3 3 2 2 1
10 6 5 5 4 5 7 8 8 9 10 10 10 10 10 10 9 8 8 7 6 5 4 3 4 4 4 4 5 6 6 6 6 6 5 5 4 4 4 4 4 3 2 2 2 2 2 2 1
5 3 3 5 4 4 5 7 7 8 9 10 9 9 10 10 9 9 8 8 7 5 4 4 3 3 3 3 4 5 5 6 5 5 4 4 3 3 3 3 3 3 2 2 2 3 2 1 1
2 2 3 3 3 5 5 6 7 7 8 9 8 9 9 10 9 9 9 8 7 6 4 4 3 3 3 4 4 4 5 5 5 5 4 3 3 3 2 2 2 2 1 1 1 2 2 1 1
2 1 1 2 4 4 5 6 6 7 8 8 8 8 8 9 9 9 9 8 7 7 6 3 3 2 3 4 4 4 4 3 4 4 4 4 3 3 2 2 1 1 0 0 1 1 2 2 2
3 2 1 2 3 4 4 5 6 6 7 8 8 7 8 8 9 8 8 8 8 7 6 5 4 4 3 4 4 4 4 4 3 3 3 3 3 2 2 1 1 1 1 1 1 1 1 2 3
4 3 3 3 3 5 6 6 6 6 7 8 8 7 7 8 8 7 7 8 8 7 7 6 5 4 3 3 3 3 3 3 3 2 2 2 1 1 0 1 1 1 1 1 2 2 2 3 3
4 3 4 5 5 7 7 7 7 6 6 8 8 8 8 8 8 7 7 7 7 7 6 6 5 5 4 2 2 2 2 2 3 3 2 2 1 1 0 0 0 0 2 2 3 3 4 5 5
4 5 7 7 7 8 8 8 8 7 6 6 8 8 8 7 7 7 7 7 6 6 5 5 4 4 3 2 2 2 2 2 2 2 2 1 1 1 2 2 1 2 3 3 3 4 5 6 5
4 6 9 9 7 8 11 10 9 10 8 7 8 8 7 7 7 7 7 7 7 6 6 5 4 3 3 2 2 2 2 1 2 2 2 2 1 2 2 2 3 3 4 4 4 4 5 5 6
6 7 10 10 9 10 11 12 11 10 9 8 8 8 8 7 7 7 7 7 6 6 5 5 4 3 2 2 2 1 1 1 1 1 2 2 2 3 3 3 3 4 4 5 5 5 4 5 6
10 11 12 11 11 13 13 12 13 12 11 10 10 11 10 8 7 7 7 6 6 5 4 4 4 3 3 2 1 1 1 1 1 1 1 2 3 3 4 5 5 5 5 5 5 5 5 5 5
13 12 13 12 12 13 12 13 14 13 13 13 12 11 11 10 8 8 7 6 6 5 4 4 4 4 3 2 2 2 2 2 2 2 3 3 3 4 5 6 6 6 7 7 7 6 6 7 7
13 13 15 14 15 14 13 15 16 15 14 15 14 13 12 12 11 9 8 7 7 7 6 5 4 5 4 4 3 4 4 3 3 3 4 5 5 6 6 7 7 7 7 8 8 8 8 8 8
15 15 16 16 16 16 15 15 18 16 15 15 14 13 13 14 13 11 9 8 8 8 7 6 6 6 6 5 5 5 5 5 5 6 6 7 7 7 7 8 8 8 9 9 9 9 9 9 9
16 16 16 14 14 15 14 15 18 19 16 16 16 15 14 15 12 12 11 10 8 9 9 8 8 7 7 7 7 7 7 7 7 7 8 8 9 9 9 10 10 10 10 10 10 10 10 10 11
16 15 15 14 14 15 13 14 18 20 19 17 17 16 16 14 13 13 13 12 12 11 10 10 10 10 10 9 10 10 9 9 9 9 9 9 10 11 11 12 12 12 12 11 11 11 11 11 12
16 16 16 16 14 14 12 13 17 20 18 17 18 17 16 15 14 15 15 15 14 13 13 12 12 12 12 12 12 12 12 11 11 11 11 11 12 12 13 13 14 13 13 12 12 13 13 13 13
18 18 16 18 18 18 17 16 18 17 19 18 19 18 17 16 15 15 15 16 16 16 15 15 15 14 14 14 14 13 14 13 13 13 13 14 14 14 14 15 15 15 15 14 14 14 14 14 14
19 18 18 18 19 19 17 18 19 20 19 19 19 19 19 18 17 17 17 17 19 19 18 17 18 17 16 16 16 16 15 16 16 16 16 16 16 16 16 17 16 16 16 16 16 16 15 16 16
18 18 20 21 20 19 19 19 18 19 20 21 21 21 21 20 18 18 19 19 20 21 21 20 19 19 19 19 18 18 18 18 19 19 19 19 18 18 18 19 18 17 17 18 18 17 17 17 17
18 19 20 21 22 22 21 20 21 20 22 23 24 23 22 23 22 21 21 21 21 22 22 22 22 21 21 21 21 21 21 21 21 21 21 21 21 21 21 21 20 19 20 20 20 20 19 19 19
Wind_Direction
81 77 76 73 64 60 51 55 51 53 54 54 69 73 63 73 70 120 105 146 148 142 135 131 138 142 141 145 147 145 146 147 147 146 146 143 139 136 131 129 121 120 119 113 108 103 101 105 108
83 78 73 64 58 51 41 44 47 46 48 52 62 51 53 51 51 49 81 136 151 140 141 133 143 144 146 148 152 151 151 145 143 144 145 145 145 142 134 132 126 121 118 113 110 106 102 104 108
85 78 68 63 55 45 39 43 45 44 44 45 50 43 45 39 47 44 58 104 130 135 137 136 141 144 145 148 154 151 147 145 142 144 145 143 144 144 139 133 128 124 119 114 113 110 105 103 108
84 72 66 61 47 42 40 44 48 42 43 43 45 44 46 45 48 55 68 98 105 124 136 142 138 135 128 134 141 146 144 142 144 144 148 143 143 144 139 133 131 128 124 119 116 114 110 105 108
75 69 66 52 45 49 43 46 48 44 42 47 48 45 46 47 54 64 68 83 100 106 116 117 135 133 127 131 136 141 147 142 147 144 145 144 141 137 136 132 129 132 134 127 122 117 113 112 114
73 66 53 40 39 49 44 43 45 45 46 43 45 44 43 48 54 70 74 79 87 94 104 106 114 126 126 133 135 139 144 145 146 146 148 145 138 135 132 132 128 129 133 132 129 127 119 111 112
83 75 62 39 27 37 41 43 41 39 41 41 41 42 41 46 53 58 63 73 81 95 111 111 110 117 127 133 145 145 146 146 149 149 149 146 141 137 134 134 135 139 135 138 138 133 125 119 112
83 72 71 47 28 31 38 40 44 40 40 38 37 42 41 40 48 50 56 64 73 88 105 111 112 111 122 135 151 154 152 151 152 151 152 148 146 144 145 142 144 146 147 151 162 161 159 154 142
84 63 66 54 38 32 34 38 38 39 38 38 37 38 40 39 41 44 50 56 66 82 99 103 111 115 116 129 149 153 156 153 152 154 155 156 153 154 157 156 158 161 167 174 181 190 192 194 202
83 66 64 68 48 40 35 36 35 31 32 34 35 32 38 37 38 43 45 46 56 75 90 98 106 118 119 128 140 151 159 157 157 158 156 152 151 155 164 170 180 186 194 195 195 198 207 214 222
91 90 77 62 50 45 35 31 29 24 22 26 28 29 34 37 35 38 44 45 50 69 83 87 97 102 106 126 139 145 156 159 160 164 165 163 159 159 165 178 192 200 208 213 212 202 205 211 249
108 74 72 51 28 22 29 29 22 20 17 19 24 26 27 33 36 37 40 42 45 53 62 66 72 90 113 123 127 142 150 158 168 174 173 170 172 173 173 162 169 189 190 190 195 192 199 211 262
172 256 63 9 20 15 20 24 16 13 9 14 18 23 26 25 28 34 35 35 39 48 48 54 58 86 115 131 131 139 147 155 174 180 171 162 167 172 174 171 165 134 88 164 206 212 235 240 254
187 220 267 330 346 1 0 15 5 5 359 5 10 18 23 22 22 28 29 29 31 36 40 47 52 55 93 116 120 134 144 155 168 174 179 171 160 163 189 191 181 156 91 62 2 324 275 274 274
200 212 265 287 324 322 326 352 355 350 348 358 4 8 18 20 21 25 25 26 28 30 33 37 41 48 73 99 108 129 138 142 144 139 172 175 163 181 194 214 205 190 298 316 321 332 321 297 288
215 238 265 291 288 292 309 321 330 323 342 350 355 360 5 13 16 18 18 19 22 25 26 29 29 32 46 67 87 99 116 127 121 116 118 116 115 118 33 28 23 316 310 313 312 323 328 318 307
249 252 264 278 287 289 295 300 311 316 328 337 342 350 353 360 5 8 11 12 13 16 20 22 24 30 41 56 81 86 93 101 111 117 114 93 70 50 23 14 346 329 330 328 317 318 320 319 318
237 264 270 275 279 280 283 289 294 302 314 318 324 333 339 346 352 355 1 4 6 8 11 13 21 26 39 54 63 81 96 94 85 68 54 50 29 2 357 340 338 339 334 329 322 317 316 318 319
220 248 267 266 270 273 276 284 288 290 303 310 314 315 323 324 330 337 343 350 354 360 0 6 9 18 25 29 35 37 62 67 43 38 33 20 6 358 1 338 335 345 344 335 324 317 315 316 319
231 241 249 258 263 266 267 279 283 287 287 295 300 299 308 309 313 318 326 332 340 346 349 357 5 5 1 353 345 336 333 338 337 345 346 349 345 341 339 339 332 333 337 337 329 317 315 314 316
241 247 249 247 256 267 266 270 273 281 283 286 290 295 299 301 301 302 309 313 317 325 332 329 335 342 339 332 318 311 313 306 310 314 323 331 335 333 331 331 328 326 330 329 329 326 317 315 313
240 248 252 249 250 256 259 265 270 277 277 279 280 283 290 290 293 296 298 302 304 307 308 307 304 309 312 309 303 300 302 299 299 300 307 309 314 321 324 328 327 324 322 325 326 327 323 321 318
240 248 252 253 255 257 256 260 268 268 271 275 275 277 283 286 287 288 286 288 294 299 299 300 298 294 294 296 296 292 294 296 296 297 301 301 303 307 313 318 319 319 316 316 316 316 317 318 316
245 248 252 257 261 261 262 260 266 265 265 274 276 276 278 279 276 277 280 280 282 289 290 292 293 291 286 286 289 290 288 290 291 291 297 298 299 302 305 308 310 310 308 307 308 309 309 306 309
247 249 255 259 263 264 266 267 267 268 267 268 270 273 274 275 274 272 274 279 279 279 283 286 285 284 282 283 285 283 280 282 285 289 292 295 296 298 299 300 302 303 303 301 300 302 303 302 301
247 242 248 259 266 271 268 258 262 271 272 271 268 265 268 271 270 269 272 276 279 279 278 280 281 279 278 280 282 280 279 282 284 287 290 292 295 296 296 295 297 299 299 298 296 297 297 297 296
243 244 244 254 260 267 269 263 258 267 272 271 271 266 263 263 265 264 268 274 277 276 276 277 278 277 277 275 277 279 280 282 284 285 288 290 291 291 293 293 293 293 293 294 296 298 296 294 295
244 239 240 243 252 258 262 265 266 265 267 271 271 268 266 265 263 264 263 268 272 274 274 275 276 275 276 275 274 277 279 280 282 283 286 288 289 289 290 292 292 290 290 292 293 295 296 293 292
253 245 241 243 242 251 259 263 262 262 265 268 268 270 269 267 265 265 268 268 269 270 270 271 272 273 273 274 274 276 278 279 280 281 282 285 285 285 287 289 291 290 289 290 290 292 295 293 291
253 247 246 247 247 247 253 261 265 263 264 265 265 265 265 262 262 263 265 268 266 267 269 269 268 270 271 271 272 273 277 280 281 281 282 283 282 282 283 285 286 286 286 290 291 291 292 292 291
Height
5885 5884 5884 5884 5883 5884 5884 5884 5882 5881 5881 5880 5879 5879 5878 5878 5879 5881 5878 5877 5877 5877 5877 5877 5878 5879 5880 5881 5882 5883 5884 5885 5886 5887 5889 5890 5891 5892 5893 5894 5894 5895 5896 5897 5897 5898 5898 5899 5899
5888 5887 5887 5885 5886 5887 5886 5885 5884 5883 5883 5882 5881 5880 5880 5879 5879 5878 5878 5878 5878 5878 5878 5879 5879 5880 5881 5882 5883 5884 5885 5886 5887 5888 5890 5891 5892 5893 5894 5895 5896 5897 5897 5898 5899 5899 5900 5900 5901
5890 5889 5888 5887 5891 5890 5889 5887 5886 5885 5884 5883 5883 5882 5882 5881 5880 5879 5879 5879 5879 5879 5880 5880 5880 5882 5882 5884 5885 5886 5886 5887 5889 5890 5891 5892 5893 5894 5895 5896 5897 5898 5899 5900 5900 5901 5901 5902 5902
5892 5890 5890 5894 5894 5892 5891 5890 5888 5887 5886 5885 5885 5884 5882 5882 5881 5880 5880 5880 5880 5880 5880 5881 5882 5883 5884 5885 5886 5887 5888 5888 5890 5891 5892 5893 5894 5896 5897 5897 5898 5899 5900 5901 5902 5902 5903 5903 5903
5893 5892 5893 5897 5896 5895 5893 5892 5891 5890 5888 5887 5886 5885 5884 5883 5882 5882 5881 5881 5881 5882 5882 5882 5883 5884 5885 5886 5887 5888 5889 5890 5891 5892 5893 5895 5896 5897 5898 5899 5900 5900 5901 5902 5903 5903 5904 5904 5904
5894 5895 5898 5899 5898 5897 5896 5894 5893 5892 5891 5889 5888 5887 5886 5885 5884 5883 5883 5883 5883 5883 5883 5884 5885 5886 5887 5887 5888 5889 5890 5891 5892 5893 5895 5896 5897 5898 5899 5900 5901 5901 5902 5903 5904 5904 5904 5905 5905
5899 5898 5903 5902 5900 5900 5899 5897 5896 5894 5893 5892 5891 5889 5888 5886 5886 5885 5885 5885 5885 5885 5885 5885 5886 5887 5888 5888 5889 5891 5892 5892 5893 5894 5896 5897 5898 5899 5900 5901 5902 5903 5903 5904 5904 5905 5905 5906 5906
5901 5901 5905 5904 5903 5902 5901 5899 5898 5896 5895 5894 5893 5891 5890 5889 5888 5887 5886 5886 5886 5886 5886 5886 5887 5888 5888 5889 5890 5892 5893 5894 5894 5895 5897 5898 5899 5900 5901 5902 5903 5903 5904 5905 5905 5906 5906 5906 5906
5904 5905 5907 5907 5906 5904 5902 5901 5899 5898 5897 5896 5895 5894 5892 5891 5890 5889 5888 5888 5887 5887 5888 5888 5889 5889 5890 5891 5891 5892 5894 5895 5896 5897 5898 5899 5900 5901 5901 5903 5903 5904 5904 5905 5905 5906 5906 5906 5907
5908 5909 5909 5908 5907 5906 5905 5903 5901 5900 5899 5898 5897 5895 5894 5893 5892 5891 5890 5889 5889 5889 5889 5889 5890 5890 5891 5892 5892 5893 5895 5896 5897 5898 5899 5900 5901 5902 5902 5903 5904 5904 5905 5905 5905 5906 5906 5907 5907
5910 5911 5910 5909 5909 5908 5907 5905 5904 5902 5901 5900 5899 5898 5896 5894 5893 5893 5892 5891 5890 5890 5890 5890 5890 5891 5892 5893 5893 5894 5895 5897 5898 5899 5900 5900 5901 5902 5903 5903 5904 5904 5905 5905 5906 5906 5906 5907 5907
5911 5911 5910 5911 5910 5909 5908 5907 5906 5904 5903 5902 5901 5899 5898 5896 5895 5894 5894 5893 5892 5892 5891 5892 5892 5892 5893 5894 5894 5895 5896 5897 5898 5899 5900 5901 5902 5902 5903 5903 5904 5904 5905 5905 5906 5906 5906 5907 5907
5912 5912 5912 5912 5911 5910 5909 5908 5907 5906 5904 5903 5902 5901 5900 5899 5897 5896 5895 5894 5894 5893 5893 5893 5893 5894 5894 5895 5895 5896 5897 5898 5898 5899 5900 5901 5902 5902 5903 5904 5904 5905 5905 5905 5906 5906 5906 5907 5907
5911 5912 5912 5912 5912 5911 5910 5909 5908 5907 5906 5904 5903 5902 5901 5900 5899 5898 5897 5896 5895 5895 5895 5894 5894 5895 5895 5896 5896 5897 5898 5899 5899 5900 5900 5901 5902 5902 5903 5904 5904 5905 5905 5905 5905 5905 5906 5906 5906
5911 5912 5913 5912 5913 5912 5911 5910 5909 5908 5907 5905 5904 5904 5903 5901 5900 5899 5898 5898 5897 5896 5896 5896 5896 5896 5896 5897 5897 5898 5899 5900 5900 5901 5901 5902 5902 5903 5903 5904 5904 5905 5905 5905 5905 5905 5905 5905 5905
5910 5911 5913 5913 5913 5912 5913 5911 5910 5908 5906 5906 5905 5904 5904 5903 5901 5900 5900 5899 5898 5898 5897 5897 5897 5897 5898 5898 5899 5899 5900 5900 5901 5901 5902 5902 5903 5903 5903 5904 5905 5905 5905 5905 5905 5905 5905 5905 5904
5910 5911 5912 5913 5913 5912 5911 5910 5910 5908 5907 5906 5905 5905 5904 5903 5902 5902 5901 5900 5900 5899 5899 5899 5899 5899 5899 5899 5900 5900 5901 5901 5902 5902 5903 5903 5903 5904 5904 5904 5905 5905 5905 5905 5904 5904 5904 5904 5903
5911 5912 5911 5911 5912 5912 5911 5910 5909 5908 5907 5905 5905 5905 5904 5904 5903 5902 5902 5901 5901 5900 5900 5900 5900 5900 5900 5900 5901 5901 5902 5902 5903 5903 5903 5904 5904 5904 5905 5905 5905 5905 5904 5904 5903 5903 5903 5903 5902
5908 5911 5912 5911 5911 5911 5910 5908 5907 5907 5906 5905 5904 5904 5904 5904 5903 5903 5902 5902 5902 5901 5901 5901 5900 5900 5901 5901 5902 5902 5902 5903 5903 5904 5904 5904 5904 5905 5905 5905 5905 5904 5904 5904 5903 5903 5902 5902 5902
5906 5908 5910 5909 5909 5909 5909 5908 5906 5905 5904 5905 5905 5904 5903 5902 5903 5903 5902 5902 5902 5902 5901 5901 5901 5901 5901 5902 5902 5903 5903 5903 5904 5904 5904 5904 5905 5905 5905 5905 5904 5904 5904 5903 5903 5902 5902 5902 5901
5903 5905 5906 5906 5907 5907 5907 5907 5906 5905 5904 5904 5903 5902 5902 5901 5901 5902 5902 5902 5902 5902 5902 5902 5902 5902 5902 5902 5902 5903 5903 5903 5904 5904 5905 5905 5904 5904 5904 5904 5904 5904 5903 5903 5902 5901 5901 5900 5900
5900 5902 5902 5902 5903 5904 5905 5904 5903 5903 5903 5902 5902 5901 5901 5901 5900 5900 5901 5901 5902 5902 5902 5902 5902 5902 5902 5903 5903 5903 5903 5903 5904 5904 5904 5904 5904 5904 5904 5904 5903 5903 5903 5902 5901 5900 5900 5899 5899
5897 5898 5898 5899 5899 5900 5901 5902 5902 5899 5900 5900 5900 5899 5899 5898 5898 5899 5900 5900 5900 5901 5901 5901 5901 5901 5902 5902 5902 5902 5903 5903 5903 5903 5903 5903 5903 5903 5903 5903 5902 5902 5901 5901 5900 5899 5899 5898 5898
5893 5895 5895 5895 5896 5897 5898 5899 5899 5896 5897 5897 5897 5897 5897 5896 5896 5897 5897 5898 5898 5899 5899 5900 5900 5900 5901 5901 5901 5901 5902 5902 5902 5902 5902 5902 5902 5902 5902 5901 5901 5900 5899 5899 5898 5897 5897 5896 5896
5890 5892 5892 5893 5894 5894 5895 5896 5896 5893 5893 5894 5894 5895 5895 5895 5894 5895 5895 5895 5896 5896 5897 5898 5898 5898 5899 5899 5899 5900 5900 5900 5900 5900 5900 5900 5900 5900 5900 5899 5899 5898 5897 5896 5896 5895 5895 5894 5893
5886 5888 5890 5891 5891 5891 5891 5892 5892 5890 5890 5891 5892 5892 5893 5893 5893 5893 5893 5893 5893 5894 5895 5895 5896 5896 5896 5897 5897 5897 5897 5898 5898 5898 5898 5898 5898 5897 5897 5896 5896 5895 5894 5893 5893 5892 5892 5891 5890
5882 5883 5886 5888 5888 5888 5889 5889 5888 5888 5887 5887 5887 5888 5889 5890 5890 5890 5890 5890 5890 5891 5891 5892 5893 5893 5894 5894 5894 5894 5895 5895 5895 5895 5895 5895 5894 5894 5894 5893 5892 5891 5891 5890 5889 5889 5888 5888 5887
5877 5879 5882 5883 5884 5884 5886 5886 5885 5884 5884 5884 5884 5884 5884 5885 5886 5887 5887 5887 5887 5887 5887 5888 5889 5889 5890 5890 5891 5891 5891 5891 5891 5891 5891 5891 5891 5890 5890 5889 5888 5888 5887 5887 5886 5885 5885 5884 5883
5873 5874 5875 5877 5879 5880 5881 5883 5879 5879 5880 5880 5879 5879 5880 5881 5882 5882 5882 5882 5882 5882 5882 5883 5884 5885 5885 5886 5886 5886 5887 5887 5887 5887 5887 5887 5886 5886 5885 5885 5884 5884 5883 5882 5882 5881 5880 5880 5879
5868 5869 5871 5872 5873 5874 5875 5878 5873 5874 5874 5874 5874 5874 5875 5875 5876 5876 5877 5876 5876 5876 5877 5878 5879 5879 5880 5880 5881 5881 5882 5882 5882 5882 5882 5881 5881 5881 5880 5880 5879 5879 5878 5878 5877 5876 5875 5875 5874